VE7GEL Saanichton CA current weather conditions

sailwx.info

Wind from 008

Air temperature 5.0° C
Dewpoint 3.5° C

Last reported at 2019-Dec-06 13:51 UTC.
Time now 2019-Dec-06 15:15 UTC

Location: N 48°36' W 123°25'.
View on Google Maps.

See reports from other nearby stations

  
Tides and Currents Weather Stations Pressure Air Temp Water Temp Dewpoint Dewpoint Depression Visibility Wind Speed Wind Dir Waves Ship Positions
date/time (UTC)wind fromknots sea level pressurealtimeterstation pressurevisibilityair tempwater tempwave heightnotes
2019-Dec-06 13:51 008 5.0
2019-Dec-06 13:36 008 5.0
2019-Dec-06 13:29 008 5.0
2019-Dec-06 12:59 008 5.0
2019-Dec-06 12:44 008 5.0
2019-Dec-06 12:30 008 5.0
2019-Dec-06 11:36 008 5.6
2019-Dec-06 11:13 008 5.6
2019-Dec-06 10:59 008 5.6
2019-Dec-06 10:44 008 5.6
2019-Dec-06 10:28 008 5.6
2019-Dec-06 10:13 008 5.6
2019-Dec-06 10:06 008 5.6
2019-Dec-06 09:43 008 5.6
2019-Dec-06 09:36 008 5.6
2019-Dec-06 09:21 008 5.6
2019-Dec-06 09:06 008 5.6
2019-Dec-06 08:51 008 5.6
2019-Dec-06 08:28 008 5.6
2019-Dec-06 08:13 008 6.1
2019-Dec-06 08:06 008 6.1
2019-Dec-06 07:43 008 6.1
2019-Dec-06 07:28 008 6.1
2019-Dec-06 07:13 008 6.1
2019-Dec-06 06:58 008 6.1
2019-Dec-06 06:43 008 6.1
2019-Dec-06 06:28 008 6.1
2019-Dec-06 06:13 008 6.1
2019-Dec-06 05:58 008 6.1
2019-Dec-06 05:43 326 0 gusting 3 6.1
2019-Dec-06 05:28 326 6.1
2019-Dec-06 05:13 326 6.1
2019-Dec-06 05:06 326 6.1
2019-Dec-06 04:50 326 6.1
2019-Dec-06 04:28 326 6.1
2019-Dec-06 04:13 326 6.1
2019-Dec-06 03:58 326 6.1
2019-Dec-06 03:43 326 6.1
2019-Dec-06 03:35 326 6.1
2019-Dec-06 03:13 326 6.1
2019-Dec-06 02:58 326 6.1
2019-Dec-06 02:50 326 6.1
2019-Dec-06 02:13 005 6.7
2019-Dec-06 01:43 005 6.7
2019-Dec-06 01:28 005 6.7
2019-Dec-06 01:13 004 6.7
2019-Dec-06 00:43 004 0 gusting 3 6.7
2019-Dec-06 00:28 007 0 gusting 4 6.7
2019-Dec-06 00:13 045 2 gusting 3 6.7
2019-Dec-05 23:42 009 1 gusting 3 6.7
2019-Dec-05 23:27 008 1 gusting 5 6.7
2019-Dec-05 23:20 014 1 gusting 6 6.7
2019-Dec-05 22:57 001 2 gusting 5 6.7
2019-Dec-05 22:50 002 2 gusting 4 7.2
2019-Dec-05 22:35 006 2 gusting 5 7.2
2019-Dec-05 22:12 002 2 gusting 6 7.2
2019-Dec-05 21:57 006 3 gusting 6 7.2
2019-Dec-05 21:42 343 2 gusting 6 7.2
2019-Dec-05 21:27 7.2
2019-Dec-05 21:12 014 0 gusting 4 7.2
2019-Dec-05 21:05 001 1 gusting 6 7.2
2019-Dec-05 20:42 011 3 gusting 6 7.2
2019-Dec-05 20:35 015 3 gusting 7 7.2
2019-Dec-05 20:12 002 0 gusting 5 7.2
2019-Dec-05 20:05 013 0 gusting 4 7.2
2019-Dec-05 19:50 007 1 gusting 6 7.2
2019-Dec-05 19:27 009 1 gusting 6 6.7
2019-Dec-05 19:12 004 1 gusting 6 7.2
2019-Dec-05 18:57 010 1 gusting 3 6.7
2019-Dec-05 18:50 013 1 gusting 5 6.7
2019-Dec-05 18:27 344 6.7
2019-Dec-05 18:12 344 6.1
2019-Dec-05 18:05 344 6.1
2019-Dec-05 17:42 344 5.6
2019-Dec-05 17:27 344 5.6
2019-Dec-05 17:04 343 0 gusting 2 5.0
2019-Dec-05 16:49 341 5.0
2019-Dec-05 16:34 341 4.4
2019-Dec-05 16:12 008 4.4
2019-Dec-05 16:04 008 4.4
2019-Dec-05 15:49 008 3.9
2019-Dec-05 15:27 008 3.9
2019-Dec-05 15:12 007 4.4
2019-Dec-05 14:57 007 4.4
2019-Dec-05 14:49 007 5.0
2019-Dec-05 14:42 007 5.0
2019-Dec-05 14:12 007 5.0
2019-Dec-05 14:04 007 5.0
2019-Dec-05 13:49 008 5.0
2019-Dec-05 13:27 006 0 gusting 3 5.0
2019-Dec-05 13:12 327 5.0
2019-Dec-05 12:57 327 5.6
2019-Dec-05 12:43 280 5.6
2019-Dec-05 12:19 280 5.6
2019-Dec-05 11:57 280 5.6
2019-Dec-05 11:41 280 5.6
2019-Dec-05 11:26 280 5.6
2019-Dec-05 11:11 280 5.6
2019-Dec-05 10:56 280 5.6
2019-Dec-05 10:41 280 5.6
2019-Dec-05 10:26 280 5.6
2019-Dec-05 10:19 280 5.6
2019-Dec-05 09:56 280 5.6
2019-Dec-05 09:49 280 5.6
2019-Dec-05 09:26 280 5.6
2019-Dec-05 09:11 280 5.6
2019-Dec-05 08:56 280 5.6
2019-Dec-05 08:49 280 5.6
2019-Dec-05 08:26 311 0 gusting 1 5.6
2019-Dec-05 07:56 217 5.6
2019-Dec-05 07:41 217 5.6
2019-Dec-05 07:26 090 5.6
2019-Dec-05 06:56 340 0 gusting 4 5.6
2019-Dec-05 06:41 010 5.6
2019-Dec-05 06:33 010 5.6
2019-Dec-05 06:11 010 0 gusting 5 6.1
2019-Dec-05 05:41 6.1
2019-Dec-05 05:26 010 2 gusting 6 6.1
2019-Dec-05 04:56 013 2 gusting 6 6.1
2019-Dec-05 04:26 006 6.1
2019-Dec-05 04:11 006 1 gusting 5 6.1
2019-Dec-05 04:03 007 1 gusting 4 6.1
2019-Dec-05 03:48 001 2 gusting 5 6.7
2019-Dec-05 03:25 009 3 gusting 5 6.7
2019-Dec-05 03:18 001 2 gusting 5 6.7
2019-Dec-05 02:55 343 3 gusting 7 6.7
2019-Dec-05 02:41 009 4 gusting 7 6.7
2019-Dec-05 02:25 005 3 gusting 6 6.7
2019-Dec-05 02:10 003 3 gusting 5 6.7
2019-Dec-05 01:55 006 2 gusting 3 6.7
2019-Dec-05 01:40 049 2 gusting 3 6.7
2019-Dec-05 01:33 049 1 gusting 3 7.2
2019-Dec-05 01:10 049 0 gusting 2 7.2
2019-Dec-05 00:56 049 7.2
2019-Dec-05 00:25 049 7.8
2019-Dec-05 00:03 049 0 gusting 2 7.2
2019-Dec-04 23:40 049 7.8
2019-Dec-04 23:33 049 7.8
2019-Dec-04 23:10 049 7.8
2019-Dec-04 23:02 049 7.8
2019-Dec-04 22:40 049 7.8
2019-Dec-04 22:25 049 7.8
2019-Dec-04 22:10 049 7.8
2019-Dec-04 21:55 049 7.8
2019-Dec-04 21:47 049 7.8
2019-Dec-04 21:41 049 7.8
2019-Dec-04 21:17 049 7.8
2019-Dec-04 20:55 049 7.8
2019-Dec-04 20:40 049 7.2
2019-Dec-04 20:25 049 0 gusting 3 7.2
2019-Dec-04 20:10 049 1 gusting 3 7.2
2019-Dec-04 19:55 049 1 gusting 4 6.7
2019-Dec-04 19:24 049 2 gusting 6 7.2
2019-Dec-04 19:02 059 3 gusting 8 7.2
2019-Dec-04 18:39 055 3 gusting 6 7.2
2019-Dec-04 18:25 050 3 gusting 7 7.8
2019-Dec-04 18:17 026 4 gusting 7 7.8
2019-Dec-04 18:02 003 4 gusting 6 7.8
2019-Dec-04 17:39 001 1 gusting 6 8.3
2019-Dec-04 17:32 006 0 gusting 4 8.3
2019-Dec-04 17:09 064 7.8
2019-Dec-04 16:39 064 7.8
2019-Dec-04 16:24 064 7.8
2019-Dec-04 16:09 064 7.8
2019-Dec-04 15:54 064 0 gusting 1 7.8
2019-Dec-04 15:39 063 7.8
2019-Dec-04 15:24 063 7.8
2019-Dec-04 15:09 063 7.8